Location: Taboleiro
(4.6167°S, 37.8167°W)
Time: 11:30:01
(UTC+00:00)

Daily predictions for brighter satellites

Satellite Brightness Start Highest point End
(mag) Time Altitude Azimuth Time Altitude Azimuth Time Altitude Azimuth
Cosmos 1814 Rocket 4.5 20:33:16 10° S 20:38:03 39° ESE 20:42:52 10° NE
Atlas Centaur 2 2.4 20:32:54 10° NW 20:40:01 79° NNE 20:45:34 10° ESE
Cosmos 2344 3.9 20:36:13 10° SSW 20:46:18 67° ESE 20:54:04 10° NNE
Lacrosse 5 rocket 1.4 20:44:42 10° NNW 20:48:47 61° ENE 20:53:09 10° SE
Delta 202 4.3 20:42:22 10° W 20:49:23 56° NNW 20:54:44 10° ENE
Cosmos 1943 Rocket 2.1 20:45:09 10° S 20:50:38 73° ESE 20:56:08 10° NNE
GPS 2-14 Rocket1 3.1 20:47:13 10° WSW 20:51:18 60° NNW 20:55:25 10° ENE
Hubble Space Telescope 3.5 20:49:46 10° WSW 20:52:09 15° SSW 20:54:34 10° S
Okean-O 2.7 20:47:49 10° SSE 20:52:16 90° SE 20:56:41 10° NNW
Cosmos 1328 4.3 20:50:25 10° NNW 20:54:16 62° W 20:58:09 10° S
CZ-3C R/B 1.5 21:02:29 10° W 21:04:15 30° NNW 21:06:12 14° NE
Cosmos 2058 4.3 21:05:01 14° ENE 21:06:39 17° E 21:09:25 10° SE
YAOGAN 6 2.5 21:08:21 10° SSE 21:12:02 64° E 21:15:40 10° N
GPS 2-17 Rocket1 3.6 21:09:14 10° WSW 21:13:58 53° SSE 21:17:03 21° E
ATLAS 5 CENTAUR R/B 3.7 21:09:48 10° WNW 21:14:05 27° N 21:24:14 12° NE
Cosmos 1076 Rocket 4.0 21:10:16 10° NNE 21:14:10 35° E 21:18:04 10° SSE
Cosmos 2082 Rocket 3.5 21:10:35 10° NE 21:20:45 - SE 21:13:33 18° ENE
ARIANE 5 R/B 1.9 21:16:56 10° WNW 21:20:05 24° NNW 21:20:43 21° NNE
Cosmos 1455 2.4 21:16:31 10° S 21:20:17 49° E 21:23:35 13° NNE
YAOGAN 1 2.6 21:16:08 10° SSE 21:20:22 53° ENE 21:24:34 10° N
Cosmos 2263 4.1 21:17:25 10° SSW 21:23:04 87° ESE 21:28:39 10° NNE
CZ-4 R/B 1.4 21:20:14 10° S 21:24:19 88° WSW 21:28:28 10° NNW
USA 234 3.2 21:20:30 12° NE 21:26:44 83° SE 21:33:17 10° SW
Cosmos 2221 4.5 21:24:10 10° SE 21:25:04 14° SE 21:25:04 14° SE
Cosmos 1459 Rocket 4.4 21:24:29 10° NNE 21:30:23 41° E 21:36:19 10° SSE
CSL-04 Rocket 3.6 21:24:58 10° SSE 21:30:30 69° ENE 21:36:00 10° N
Cosmos 1842 Rocket 4.2 21:26:37 10° SSE 21:30:34 33° E 21:30:43 33° E
MINOTAUR IV R/B 4.5 21:27:13 10° N 21:31:43 73° ENE 21:36:16 10° SSE
SL-4 R/B 2.5 21:30:20 10° NW 21:33:40 47° SW 21:36:58 10° SSE
COSMOS 2406 4.0 21:31:59 10° NNW 21:37:30 52° WSW 21:43:01 10° S
Cosmos 2061 Rocket 4.4 21:44:27 37° E 21:44:48 37° E 21:50:28 10° SSE
Cosmos 2123 Rocket 4.2 21:39:52 10° S 21:46:12 74° W 21:52:29 10° N
NOAA 11 4.0 21:47:55 10° SSE 21:53:22 69° ENE 21:58:46 10° N
BREEZE-M DEB (TANK) 2.8 21:52:03 10° SW 21:53:48 43° W 21:53:48 43° W
Cosmos 220 Rocket 3.8 21:51:41 10° SSW 21:55:57 85° W 21:56:17 75° N
Meteor 1-27 4.3 21:54:20 10° S 21:59:20 53° ESE 21:59:20 53° ESE
Cosmos 1340 Rocket 3.4 21:57:00 10° SSW 22:00:49 53° W 22:01:37 44° NW
Cosmos 2173 Rocket 3.8 21:54:58 10° N 22:01:04 86° E 22:07:11 10° S
ADEOS Rocket 3.1 21:54:49 10° N 22:01:30 83° WNW 22:07:31 10° SSW
Ariane H10 3.6 21:59:52 10° WNW 22:03:46 43° NW 22:03:46 43° NW
CZ-2D R/B 4.1 22:04:24 10° S 22:07:38 47° SW 22:07:38 47° SW
USA 215 3.6 22:09:44 10° SSE 22:16:12 64° SW 22:22:40 10° NW
Cosmos 1802 Rocket 3.9 22:09:54 10° N 22:16:13 87° W 22:22:29 10° S
Cosmos 1833 Rocket 3.6 22:16:58 10° NW 22:22:18 46° WSW 22:27:41 10° S
Atlas Centaur 2 3.9 22:24:29 10° W 22:28:58 22° SSW 22:30:30 19° S
Cosmos 2082 Rocket 4.1 22:53:10 10° NW 23:02:04 14° SSW 23:02:57 10° SSW
FALCON 9 R/B 4.5 23:16:31 10° WNW 23:41:49 46° SW 23:43:05 45° SSW
